Weather Roundup
Issued by NWS Chicago, IL

Home | Current Version | Previous Version | Text Only | Print | Product List | Glossary On
Versions: 1 2 3 4 5 6 7 8 9 10 11 12 13 14 15 16 17 18 19 20 21 22 23 24 25 26 27 28 29 30 31 32 33 34 35 36 37 38 39 40 41 42 43 44 45 46 47 48 49 50
000
NZUS59 KLOT 190810
HRRLOT

CHICAGO AREA WEATHER ROUNDUP
NATIONAL WEATHER SERVICE CHICAGO/ROMEOVILLE IL
200 AM CST FRI DEC 19 2014

NOTE: "FAIR" INDICATES FEW OR NO CLOUDS BELOW 12,000 FEET WITH NO
SIGNIFICANT WEATHER AND/OR OBSTRUCTIONS TO VISIBILITY.

* THESE STATIONS ARE NOT UNDER NWS QUALITY CONTROL. THEY ALSO MAY NOT
  REPORT WEATHER SUCH AS PRECIPITATION OR FOG.

ILZ005-006-012>014-019>023-190900-
NORTHEAST ILLINOIS

CITY           SKY/WX    TMP DP  RH WIND       PRES   REMARKS
OHARE          CLOUDY    27  22  81 NW8       30.27R WCI  19
MIDWAY         FLURRIES  29  22  75 NW7       30.27R WCI  22
AURORA         CLOUDY    26  19  74 NW5       30.28R WCI  20
LANSING*       CLOUDY    28  23  82 W5        30.27R WCI  22
JOLIET*        CLOUDY    26  21  82 NW3       30.29R
WAUKEGAN       CLOUDY    27  21  78 W7        30.26R WCI  19
DUPAGE AIRPORT CLOUDY    27  20  75 NW5       30.27R WCI  22
WHEELING       CLOUDY    28  23  81 NW6       30.29R WCI  22
KANKAKEE*      CLOUDY    25  22  87 W5        30.29R WCI  19
MORRIS*        CLOUDY    23  22  94 NW5       30.28S WCI  17
LEWIS AIRPORT* CLOUDY    27  21  80 NW6       30.28R WCI  20
NORTHERLY IS     N/A     29  24  82 W9          N/A  WCI  21
$$

WIZ051-052-058>065-066-070>072-190900-
SOUTHEAST WISCONSIN

CITY           SKY/WX    TMP DP  RH WIND       PRES   REMARKS
MILWAUKEE      CLOUDY    28  20  71 W8        30.27R WCI  20
KENOSHA*       CLOUDY    27  22  81 W7        30.26S WCI  19
RACINE*        CLOUDY    28  21  75 W8        30.28R WCI  20
BURLINGTON     CLOUDY    25  20  82 NW3       30.28R
WAUKESHA       CLOUDY    25  21  86 NW8       30.27S WCI  16
WEST BEND      CLEAR     21  18  86 W3        30.26S
$$

INZ001>003-010>013-019-020-190900-
NORTHWEST INDIANA

CITY           SKY/WX    TMP DP  RH WIND       PRES   REMARKS
GARY*          CLOUDY    30  20  64 W5        30.27S WCI  26
MICHIGAN CITY* NOT AVBL
RENSSELAER*    NOT AVBL
VALPARAISO     CLOUDY    26  21  81 W7        30.26R WCI  18
$$

LMZ740>746-190900-
SOUTHERN LAKE MICHIGAN

STATION/POSITION TIME  SKY/WX   TEMP WIND        PRES    VSBY
                                AIR  DIR/SP/G
                 (UTC)          (F)  (DEG/KT/KT) (MB)    (MI)
HARRISON CRIB    0800            29  310/ 12/ 13   N/A
BURNHAM HARBOR   0800            29  270/  8/ 14   N/A
CALUMET HARBOR   0800            29  260/  5/  8 1023.5R
BURNS HARBOR     NOT AVBL
MICHIGAN CITY    NOT AVBL
$$

ABBREVIATIONS USED IN REMARKS
   TC - TEMPERATURE IN CELSIUS
  WCI - WIND CHILL INDEX
   HX - HEAT INDEX
  VSB - VISIBILITY
$$


USA.gov is the U.S. government's official web portal to all federal, state and local government web resources and services.